GW2145 Weather Reports


time (UTC)temp
F
wind
direction
speed
knots
gust
knots
rain 1hr
in
rain 24hr
in
rain mn
in
humidity
%
barometer
mb
20260508104436 31 155 0.0 0.9 0.00 0.11 0.01 95 926.7
20260508103443 32 112 0.0 1.7 0.00 0.11 0.01 95 927.0
20260508102442 32 30 0.9 2.6 0.00 0.11 0.01 95 927.4
20260508101446 32 55 0.9 6.1 0.00 0.11 0.01 95 927.4
20260508100430 32 325 3.5 7.0 0.00 0.11 0.01 94 927.5
20260508095434 32 82 0.0 1.7 0.00 0.11 0.01 94 926.6
20260508094440 33 83 0.0 0.9 0.00 0.11 0.01 94 925.8
20260508093442 33 308 0.0 0.0 0.00 0.11 0.01 93 925.7
20260508092940 33 308 0.0 0.0 0.00 0.11 0.01 93 925.6
20260508091428 33 308 0.0 0.0 0.00 0.11 0.01 93 925.7
20260508090514 34 308 0.0 0.0 0.00 0.11 0.01 92 925.8
20260508085430 34 307 0.0 1.7 0.00 0.11 0.01 92 925.9
20260508084436 33 50 1.7 5.2 0.00 0.11 0.01 92 925.9
20260508083437 33 153 0.0 3.5 0.00 0.11 0.01 94 925.9
20260508082936 33 105 1.7 3.5 0.00 0.11 0.01 93 925.8
20260508081938 34 117 1.7 4.3 0.00 0.11 0.01 93 926.1
20260508080943 34 105 1.7 2.6 0.00 0.11 0.01 94 926.1
20260508075926 34 82 0.0 1.7 0.00 0.11 0.01 93 926.1
20260508074435 34 296 0.0 3.5 0.00 0.11 0.01 92 925.9
20260508073436 34 283 0.0 1.7 0.00 0.11 0.01 93 925.8
20260508072936 34 269 0.0 1.7 0.00 0.11 0.01 92 925.8
20260508071942 34 257 0.9 2.6 0.00 0.11 0.01 93 925.8
20260508070945 34 276 1.7 3.5 0.00 0.11 0.01 93 925.9
20260508070425 34 269 0.9 2.6 0.00 0.11 0.01 93 925.8
20260508065430 34 278 0.9 3.5 0.01 0.11 0.01 93 925.8
20260508064430 34 291 1.7 4.3 0.03 0.11 0.01 92 925.8
20260508063433 34 289 0.9 4.3 0.04 0.11 0.01 92 925.9
20260508062429 35 297 3.5 7.0 0.05 0.11 0.01 91 926.1
20260508061432 35 304 3.5 11.3 0.05 0.11 0.01 92 926.3
20260508060434 34 304 6.1 11.3 0.05 0.11 0.01 93 927.0
20260508054948 35 304 3.5 9.6 0.04 0.09 0.09 92 927.2
20260508054445 35 306 3.5 9.6 0.03 0.08 0.08 91 927.1
20260508053927 36 273 4.3 7.0 0.03 0.08 0.08 91 927.1
20260508052930 36 287 3.5 6.1 0.01 0.06 0.06 91 927.2
20260508051933 36 216 0.0 3.5 0.01 0.06 0.06 90 927.0
20260508050936 36 287 1.7 6.1 0.01 0.06 0.06 90 927.3
20260508045942 36 285 0.9 2.6 0.01 0.06 0.06 91 927.4
20260508045439 37 279 0.0 3.5 0.00 0.05 0.05 90 927.3
20260508044440 37 271 0.9 2.6 0.00 0.05 0.05 90 927.4
20260508043441 37 276 0.9 5.2 0.00 0.05 0.05 89 927.3
20260508042924 36 276 1.7 5.2 0.00 0.05 0.05 91 927.2
20260508041933 35 233 1.7 3.5 0.00 0.05 0.05 93 927.2
20260508040932 36 218 1.7 4.3 0.00 0.05 0.05 93 927.1
20260508035936 36 143 0.0 0.9 0.00 0.05 0.05 92 927.3
20260508034942 36 212 0.9 2.6 0.00 0.05 0.05 93 927.2
20260508034442 36 139 0.0 2.6 0.00 0.05 0.05 92 927.0
20260508033435 36 150 0.0 0.0 0.00 0.05 0.05 92 927.1
20260508032440 36 150 0.0 0.9 0.00 0.05 0.05 92 927.2
20260508030932 36 277 0.0 0.9 0.00 0.05 0.05 92 926.8
20260508025934 36 278 0.0 1.7 0.00 0.05 0.05 92 926.7
20260508024941 36 278 0.0 0.9 0.00 0.05 0.05 91 926.3
20260508023947 36 268 0.0 3.5 0.00 0.05 0.05 91 926.1
20260508022941 36 234 0.0 3.5 0.00 0.05 0.05 90 926.2
20260508021941 37 233 0.9 3.5 0.00 0.05 0.05 89 926.0
20260508020944 37 237 0.0 1.7 0.00 0.05 0.05 89 926.1
20260508020424 37 83 0.0 1.7 0.00 0.05 0.05 89 926.1
20260508015430 37 288 0.0 3.5 0.00 0.05 0.05 88 926.4
20260508014431 37 290 4.3 7.8 0.00 0.05 0.05 88 926.1
20260508013432 38 278 2.6 7.0 0.01 0.05 0.05 88 925.6
20260508012932 38 288 4.3 13.9 0.01 0.05 0.05 87 925.5
20260508012431 38 314 6.1 14.8 0.01 0.05 0.05 86 925.5
20260508011434 38 297 6.1 11.3 0.01 0.05 0.05 88 925.4
20260508010442 38 293 4.3 13.0 0.01 0.05 0.05 89 925.5
20260508005443 38 293 6.1 13.0 0.02 0.05 0.05 89 925.6
20260508004428 38 291 7.0 12.2 0.03 0.05 0.05 89 925.5
20260508003434 38 285 4.3 9.6 0.02 0.04 0.04 90 925.6
20260508002934 39 290 4.3 9.6 0.02 0.04 0.04 89 925.3
20260508002433 39 264 3.5 9.6 0.02 0.04 0.04 89 925.2
20260508001438 40 259 3.5 11.3 0.02 0.04 0.04 90 925.1
20260508000436 38 279 7.0 20.0 0.02 0.04 0.04 89 925.1
20260507235439 40 295 13.9 22.6 0.01 0.03 0.02 79 925.5
20260507234442 44 283 3.5 7.0 0.00 0.02 0.02 75 925.1
20260507233428 45 288 3.5 7.0 0.00 0.02 0.02 75 925.0
20260507232928 46 255 3.5 7.0 0.00 0.02 0.02 75 925.0
20260507231932 45 302 2.6 10.4 0.00 0.02 0.02 77 925.1
20260507230936 44 278 3.5 9.6 0.01 0.02 0.02 77 925.2
20260507225946 43 234 2.6 8.7 0.01 0.02 0.02 81 925.6
20260507225429 42 278 4.3 9.6 0.01 0.02 0.02 81 925.9
20260507224430 42 288 5.2 9.6 0.01 0.02 0.02 78 925.9
20260507222952 42 290 4.3 14.8 0.01 0.02 0.02 81 926.0
20260507221935 40 284 3.5 17.4 0.01 0.02 0.02 86 926.3
20260507220938 39 298 12.2 18.2 0.00 0.01 0.01 83 926.3
20260507215925 39 283 11.3 18.2 0.00 0.01 0.01 82 926.2
20260507214930 41 295 9.6 23.5 0.01 0.02 0.01 78 926.3
20260507213931 44 271 11.3 21.7 0.01 0.02 0.01 74 926.2
20260507212942 45 304 9.6 19.1 0.01 0.02 0.01 77 926.4
20260507212424 44 274 5.2 15.6 0.01 0.02 0.01 78 926.6
20260507211432 41 288 9.6 16.5 0.01 0.02 0.01 73 926.7
20260507210428 38 310 4.3 10.4 0.01 0.02 0.01 81 927.2
20260507205436 39 323 8.7 19.1 0.01 0.08 0.01 77 927.1
20260507204437 41 313 13.9 22.6 0.00 0.07 0.00 68 926.8
20260507203441 44 276 10.4 19.1 0.00 0.07 0.00 61 926.7
20260507202939 44 300 8.7 16.5 0.00 0.07 0.00 61 926.7
20260507201941 44 309 3.5 9.6 0.00 0.07 0.00 60 927.0
20260507200946 45 321 7.8 13.0 0.00 0.07 0.00 56 927.2
20260507200424 45 316 7.8 13.0 0.00 0.07 0.00 55 927.2
20260507195433 46 274 8.7 18.2 0.00 0.21 0.00 55 927.3
20260507194434 46 293 7.8 13.0 0.00 0.21 0.00 62 927.3
20260507193437 46 293 11.3 18.2 0.00 0.21 0.00 55 927.4
20260507192436 47 283 9.6 18.2 0.00 0.21 0.00 55 927.8
20260507191440 46 295 7.0 16.5 0.00 0.21 0.00 57 927.8
20260507190425 45 288 12.2 18.2 0.00 0.21 0.00 55 927.7
20260507185432 44 290 7.0 15.6 0.00 0.27 0.00 58 927.9
20260507184435 44 302 7.0 12.2 0.00 0.27 0.00 60 927.9
20260507183440 44 289 8.7 13.9 0.00 0.27 0.00 60 928.2
20260507182437 43 307 6.1 17.4 0.00 0.27 0.00 60 928.3
20260507181440 42 290 7.0 13.0 0.00 0.27 0.00 60 928.4
20260507180443 41 317 7.0 15.6 0.00 0.27 0.00 62 928.5
20260507175922 41 297 9.6 15.6 0.00 0.27 0.00 61 928.6
20260507174926 41 305 10.4 17.4 0.00 0.27 0.00 62 928.4
20260507173933 41 286 6.1 11.3 0.00 0.27 0.00 62 928.8
20260507173428 41 300 5.2 8.7 0.00 0.27 0.00 64 928.8
20260507172429 41 307 2.6 10.4 0.00 0.27 0.00 64 929.1
20260507171431 40 304 2.6 13.0 0.00 0.27 0.00 63 929.3
20260507170441 40 309 7.0 17.4 0.00 0.27 0.00 63 929.1
20260507165430 41 281 7.0 15.6 0.00 0.27 0.00 64 929.2
20260507164434 40 314 10.4 21.7 0.00 0.27 0.00 64 928.9
20260507163441 40 291 10.4 21.7 0.00 0.27 0.00 66 928.8
20260507162933 39 293 10.4 21.7 0.00 0.27 0.00 64 928.9
20260507161941 40 278 9.6 20.9 0.00 0.27 0.00 65 929.2
20260507160941 39 295 10.4 19.1 0.00 0.27 0.00 65 929.5
20260507155949 39 293 8.7 14.8 0.00 0.27 0.00 66 929.8
20260507155425 38 284 7.0 17.4 0.00 0.27 0.00 68 930.0
20260507154430 38 285 7.8 15.6 0.00 0.27 0.00 68 930.1
20260507153429 37 293 6.1 14.8 0.00 0.27 0.00 68 930.4
20260507152442 36 270 4.3 9.6 0.00 0.27 0.00 70 930.7
20260507151926 35 270 4.3 9.6 0.00 0.27 0.00 69 930.8
20260507150931 34 283 4.3 9.6 0.00 0.27 0.00 70 931.3
20260507145935 34 259 4.3 8.7 0.00 0.27 0.00 71 931.4
20260507144941 33 276 2.6 9.6 0.00 0.27 0.00 72 931.8
20260507143941 32 274 1.7 8.7 0.00 0.27 0.00 74 931.9
20260507143422 32 216 2.6 9.6 0.00 0.27 0.00 73 931.9
20260507142430 31 263 1.7 10.4 0.00 0.27 0.00 74 931.8
20260507141435 30 241 1.7 11.3 0.00 0.27 0.00 74 931.7
20260507140433 29 240 4.3 7.8 0.00 0.27 0.00 74 931.9
20260507135439 29 262 1.7 8.7 0.00 0.27 0.00 76 931.8
20260507134441 28 273 1.7 7.0 0.00 0.27 0.00 76 931.9
20260507133927 28 271 1.7 7.0 0.00 0.27 0.00 76 931.7
20260507132929 28 285 1.7 8.7 0.00 0.27 0.00 76 931.8
20260507131928 28 262 2.6 6.1 0.00 0.27 0.00 76 931.7
20260507130932 27 198 3.5 7.0 0.00 0.27 0.00 76 931.7
20260507125939 27 257 2.6 6.1 0.00 0.27 0.00 77 931.9
20260507124927 27 271 1.7 6.1 0.00 0.27 0.00 77 932.0
20260507123931 26 243 1.7 7.8 0.00 0.27 0.00 77 932.0
20260507122932 26 278 2.6 6.1 0.00 0.27 0.00 77 932.2
20260507121935 26 254 1.7 8.7 0.00 0.27 0.00 77 932.3
20260507120937 26 271 0.9 6.1 0.00 0.27 0.00 77 932.5
20260507115944 25 43 0.9 7.8 0.00 0.27 0.00 77 932.6
20260507115444 25 285 1.7 7.8 0.00 0.27 0.00 77 932.5
20260507114924 25 259 0.9 5.2 0.00 0.27 0.00 77 932.7
20260507113925 26 260 2.6 7.0 0.00 0.27 0.00 75 933.0
20260507112928 26 250 1.7 7.0 0.00 0.27 0.00 75 933.2
20260507111927 26 239 1.7 7.8 0.00 0.27 0.00 75 933.2
20260507110932 26 231 3.5 8.7 0.00 0.27 0.00 75 933.4
20260507105932 26 250 2.6 6.1 0.00 0.27 0.00 75 933.4